CW9688 Weather Reports


time (UTC)temp
C
wind
direction
speed
KPH
gust
KPH
rain 1hr
cm
rain 24hr
cm
rain mn
cm
humidity
%
barometer
mb
20260502193804 20 44 8.0 20.9 0.00 0.00 0.00 13 1016.9
20260502192804 20 41 4.8 16.1 0.00 0.00 0.00 16 1016.9
20260502191804 20 49 8.0 14.5 0.00 0.00 0.00 14 1016.9
20260502190304 19 34 6.4 16.1 0.00 0.00 0.00 17 1016.9
20260502185804 19 68 9.7 16.1 0.00 0.00 0.00 17 1016.9
20260502185305 18 35 9.7 14.5 0.00 0.00 0.00 17 1016.9
20260502184804 18 287 3.2 8.0 0.00 0.00 0.00 17 1016.9
20260502184304 18 106 8.0 12.9 0.00 0.00 0.00 18 1016.9
20260502183804 18 65 6.4 16.1 0.00 0.00 0.00 18 1016.9
20260502182305 18 56 9.7 16.1 0.00 0.00 0.00 20 1016.9
20260502180804 18 61 8.0 12.9 0.00 0.00 0.00 18 1016.9
20260502180304 18 117 3.2 12.9 0.00 0.00 0.00 18 1016.9
20260502170304 17 8 9.7 16.1 0.00 0.00 0.00 21 1016.9
20260502163804 17 79 4.8 11.3 0.00 0.00 0.00 22 1016.9
20260502161304 16 229 4.8 8.0 0.00 0.00 0.00 22 1016.9
20260502150805 12 255 4.8 8.0 0.00 0.00 0.00 31 1016.9
20260502123304 1 24 1.6 3.2 0.00 0.00 0.00 67 1015.2
20260502120304 1 24 0.0 1.6 0.00 0.00 0.00 67 1015.2
20260502111804 1 24 3.2 3.2 0.00 0.00 0.00 63 1015.2
20260502111304 1 24 1.6 3.2 0.00 0.00 0.00 63 1015.2
20260502105306 1 24 1.6 3.2 0.00 0.00 0.00 63 1015.2
20260502104804 1 24 3.2 4.8 0.00 0.00 0.00 62 1015.2
20260502103304 2 24 3.2 3.2 0.00 0.00 0.00 60 1015.2
20260502102804 2 24 0.0 0.0 0.00 0.00 0.00 59 1015.2
20260502100804 2 24 1.6 3.2 0.00 0.00 0.00 58 1015.2
20260502070304 6 37 1.6 3.2 0.00 0.00 0.00 43 1015.2
20260502065804 6 37 1.6 3.2 0.00 0.00 0.00 43 1015.2
20260502065306 6 37 1.6 3.2 0.00 0.00 0.00 43 1015.2
20260502063304 7 37 0.0 1.6 0.00 0.00 0.00 41 1015.2
20260502062804 7 37 0.0 0.0 0.00 0.00 0.00 39 1015.2
20260502060816 8 37 0.0 1.6 0.00 0.00 0.00 39 1015.2
20260502055804 8 37 0.0 1.6 0.00 0.00 0.00 38 1015.2
20260502053804 8 37 1.6 3.2 0.00 0.00 0.00 37 1015.2
20260502052306 8 37 1.6 3.2 0.00 0.00 0.00 37 1015.2
20260502051304 8 37 0.0 0.0 0.00 0.00 0.00 36 1015.2
20260502050804 8 37 0.0 0.0 0.00 0.00 0.00 36 1015.2
20260502045804 8 37 0.0 0.0 0.00 0.00 0.00 35 1015.2
20260502044304 8 37 0.0 0.0 0.00 0.00 0.00 34 1015.2
20260502043804 8 37 0.0 0.0 0.00 0.00 0.00 34 1015.2
20260502042306 8 37 0.0 0.0 0.00 0.00 0.00 30 1015.2
20260502041804 9 37 0.0 0.0 0.00 0.00 0.00 30 1015.2
20260502040804 9 37 0.0 0.0 0.00 0.00 0.00 30 1015.2
20260502035803 10 37 0.0 1.6 0.00 0.00 0.00 30 1015.2
20260502034804 10 37 0.0 1.6 0.00 0.00 0.00 29 1015.2
20260502033804 11 37 1.6 4.8 0.00 0.00 0.00 27 1015.2
20260502033303 11 37 3.2 4.8 0.00 0.00 0.00 27 1015.2
20260502031803 10 38 4.8 8.0 0.00 0.00 0.00 28 1015.2
20260502030303 11 44 1.6 4.8 0.00 0.00 0.00 26 1015.2
20260502025804 11 44 1.6 4.8 0.00 0.00 0.00 25 1015.2
20260502025306 11 34 3.2 8.0 0.00 0.00 0.00 26 1015.2
20260502024303 11 42 1.6 3.2 0.00 0.00 0.00 27 1015.2
20260502023804 11 42 1.6 3.2 0.00 0.00 0.00 27 1015.2
20260502023304 11 42 1.6 3.2 0.00 0.00 0.00 26 1015.2
20260502022803 12 44 1.6 4.8 0.00 0.00 0.00 25 1015.2
20260502022306 12 48 3.2 4.8 0.00 0.00 0.00 25 1015.2
20260502021305 13 34 1.6 4.8 0.00 0.00 0.00 23 1015.2
20260502020803 13 38 3.2 8.0 0.00 0.00 0.00 23 1015.2
20260502015804 13 34 3.2 4.8 0.00 0.00 0.00 23 1015.2
20260502015305 13 26 3.2 4.8 0.00 0.00 0.00 23 1015.2
20260502013303 15 20 8.0 12.9 0.00 0.00 0.00 21 1015.2
20260502011804 15 17 8.0 12.9 0.00 0.00 0.00 20 1015.2
20260502010804 15 352 8.0 14.5 0.00 0.00 0.00 20 1015.2
20260502010304 15 11 8.0 14.5 0.00 0.00 0.00 20 1015.2
20260502005804 15 344 8.0 14.5 0.00 0.00 0.00 20 1015.2
20260502005306 15 345 9.7 19.3 0.00 0.00 0.00 20 1015.2
20260502004804 15 43 8.0 19.3 0.00 0.00 0.00 19 1015.2
20260502004304 16 14 9.7 19.3 0.00 0.00 0.00 19 1015.2
20260502003803 16 29 8.0 25.7 0.00 0.00 0.00 19 1015.2
20260502002305 16 41 6.4 20.9 0.00 0.00 0.00 18 1015.2
20260502001303 17 20 4.8 8.0 0.00 0.00 0.00 17 1015.2
20260502000804 17 284 8.0 14.5 0.00 0.00 0.00 18 1015.2
20260501235804 16 349 11.3 22.5 0.00 0.00 0.00 17 1015.2
20260501234804 17 270 8.0 12.9 0.00 0.00 0.00 17 1015.2
20260501232804 17 6 8.0 19.3 0.00 0.00 0.00 16 1015.2
20260501232306 17 350 14.5 20.9 0.00 0.00 0.00 16 1015.2
20260501231304 17 320 11.3 20.9 0.00 0.00 0.00 16 1015.2
20260501230804 16 73 11.3 25.7 0.00 0.00 0.00 16 1015.2
20260501230304 17 349 11.3 19.3 0.00 0.00 0.00 16 1015.2
20260501224804 17 316 11.3 24.1 0.00 0.00 0.00 16 1015.2
20260501224304 17 16 14.5 24.1 0.00 0.00 0.00 16 1015.2
20260501223304 16 335 6.4 19.3 0.00 0.00 0.00 18 1015.2
20260501222804 16 24 4.8 16.1 0.00 0.00 0.00 18 1015.2
20260501221803 16 28 14.5 24.1 0.00 0.00 0.00 16 1015.2
20260501220804 16 55 9.7 20.9 0.00 0.00 0.00 17 1015.2
20260501220304 16 22 4.8 20.9 0.00 0.00 0.00 16 1015.2
20260501214304 17 16 11.3 25.7 0.00 0.00 0.00 17 1015.2
20260501213303 16 64 11.3 20.9 0.00 0.00 0.00 17 1015.2
20260501210803 16 130 4.8 16.1 0.00 0.00 0.00 18 1015.2
20260501210304 16 64 12.9 20.9 0.00 0.00 0.00 17 1015.2
20260501205803 16 51 12.9 22.5 0.00 0.00 0.00 18 1015.2
20260501205306 16 52 6.4 14.5 0.00 0.00 0.00 17 1015.2
20260501204804 17 9 9.7 19.3 0.00 0.00 0.00 17 1015.2
20260501204304 17 247 9.7 19.3 0.00 0.00 0.00 20 1015.2
20260501203304 16 8 9.7 19.3 0.00 0.00 0.00 19 1015.2
20260501201804 15 189 3.2 19.3 0.00 0.00 0.00 19 1015.2
20260501201304 16 64 11.3 27.4 0.00 0.00 0.00 18 1015.2
20260501200304 16 34 6.4 16.1 0.00 0.00 0.00 19 1015.2
20260501195306 16 349 8.0 16.1 0.00 0.00 0.00 21 1015.2